Regional Weather Roundup
Issued by NWS

Home | Current Version | Previous Version | Text Only | Print | Product List | Glossary Off
Versions: 1 2 3 4 5 6 7 8 9 10 11 12 13 14 15 16 17 18 19 20 21 22 23 24 25 26 27 28 29 30 31 32 33 34 35 36 37 38 39 40 41 42 43 44 45 46 47 48 49 50

000
ASUS43 KMPX 252101
RWRMN
WEATHER ROUNDUP FOR MINNESOTA
NATIONAL WEATHER SERVICE TWIN CITIES/CHANHASSEN MN
400 PM CDT FRI JUL 25 2014


NOTE: "FAIR" INDICATES FEW OR NO CLOUDS BELOW 12,000 FEET WITH NO
SIGNIFICANT WEATHER AND/OR OBSTRUCTIONS TO VISIBILITY. N/A MEANS
CURRENT SKY AND/OR WEATHER CONDITIONS ARE NOT AVAILABLE.

MNZ060>063-068>070-252200-
   Twin Cities Metro

CITY           SKY/WX    TMP DP  RH WIND       PRES   REMARKS
TWIN CITIES    CLOUDY    80  67  64 S12       29.78S
ST PAUL        CLOUDY    79  68  69 S8        29.78F
CRYSTAL        CLOUDY    81  67  62 S10       29.76F
LAKEVILLE      CLOUDY    77  68  73 S8        29.79S
EDEN PRAIRIE   CLOUDY    80  68  66 SW9       29.76F
SOUTH ST PAUL  CLOUDY    80  67  63 S10       29.78S
LAKE ELMO      CLOUDY    77  70  78 SE6       29.80F
$$
MNZ001>005-007-008-013>017-022>024-027-028-252200-
   Northwest Minnesota

CITY           SKY/WX    TMP DP  RH WIND       PRES   REMARKS
BEMIDJI        CLOUDY    75  66  75 SW5       29.75F
HALLOCK        SUNNY     81  55  41 W14G21    29.70S
ROSEAU         SUNNY     77  70  78 S5        29.71F
WARROAD        PTSUNNY   75  68  78 SW6       29.72F
THIEF RVR FALL PTSUNNY   77  68  73 W9        29.74S
CROOKSTON      PTSUNNY   77  70  78 SW6       29.74S
FOSSTON        PTSUNNY   77  66  69 SW9       29.76S
DETROIT LAKES  PTSUNNY   77  68  73 SW6       29.78F
MOORHEAD       MOSUNNY   79  72  78 NW7       29.76F
PARK RAPIDS    CLOUDY    78  66  66 W3        29.76S
$$
MNZ006-009>011-018-025>026-252200-
   North Central Minnesota

CITY           SKY/WX    TMP DP  RH WIND       PRES   REMARKS
BAUDETTE       PTSUNNY   75  66  73 S3        29.74S
FLAG ISLAND    MOSUNNY   73  64  73 S7        29.71S
INTL FALLS     CLOUDY    74  64  71 S6        29.74F
WASKISH        SUNNY     75  66  73 W6        29.75S
BIG FORK       PTSUNNY   72  64  78 S1        29.78S
LONGVILLE      PTSUNNY   79  66  65 CALM      29.76F
GRAND RAPIDS   CLOUDY    73  64  73 CALM      29.78R
CRANE LAKE     CLOUDY    72  64  78 CALM      29.77F
ORR            CLOUDY    72  61  68 S5        29.75F
COOK           CLOUDY    70  63  78 SE5       29.79S
$$
MNZ012-019>021-037-252200-
   Northeast Minnesota

CITY           SKY/WX    TMP DP  RH WIND       PRES   REMARKS
DULUTH         CLOUDY    69  63  81 SE7       29.80S
ELY            CLOUDY    70  63  78 S5        29.79F
HIBBING        CLOUDY    74  63  68 CALM      29.78F
EVELETH        CLOUDY    72  64  78 SE5       29.80S
DULUTH HARBOR  CLOUDY    61  57  88 NE5       29.80S
TWO HARBORS    CLOUDY    66  61  82 S7        29.79S
SILVER BAY     MOSUNNY   68  66  94 S7        29.78F
GRAND MARAIS     N/A     59  54  83 CALM      29.79S
G MARAIS ARPRT MOSUNNY   66  57  72 CALM      29.82F
$$
MNZ029>031-032-039>041-046>048-054>057-064-252200-
   West Central Minnesota

CITY           SKY/WX    TMP DP  RH WIND       PRES   REMARKS
FERGUS FALLS   MOSUNNY   77  64  65 CALM      29.76F
MORRIS         SUNNY     77  70  78 NW6       29.77S
ALEXANDRIA     CLOUDY    75  67  76 W7        29.80S
ELBOW LAKE     CLOUDY    73  68  84 NW5       29.78S
WADENA         PTSUNNY   75  66  73 SW6       29.78R
GLENWOOD       MOSUNNY   77  68  73 W3        29.79S
APPLETON       PTSUNNY   82  70  65 NW5       29.75F
BENSON         CLOUDY    81  70  69 NW7       29.76S
ORTONVILLE     PTSUNNY   81  66  61 NW10      29.77S
MADISON        SUNNY     81  72  74 NW6       29.76S
WILLMAR        FAIR      81  70  69 W5        29.78S
$$
MNZ033>034-036-042>043-049>051-058-059-252200-
   Central Minnesota

CITY           SKY/WX    TMP DP  RH WIND       PRES   REMARKS
ST CLOUD       CLOUDY    80  67  64 SW8       29.77S
SAUK CENTRE    CLOUDY    75  67  77 W7        29.79S
PAYNESVILLE    CLOUDY    75  67  76 S3        29.78S HAZE
AITKIN         CLOUDY    81  70  69 CALM      29.76S
PINE RIVER     CLOUDY    77  66  69 S6        29.80S
BRAINERD       CLOUDY    77  66  68 W7        29.78R
STAPLES        CLOUDY    75  66  73 S5        29.78S
LONG PRAIRIE   CLOUDY    73  66  78 SW5       29.79S
LITTLE FALLS   CLOUDY    77  64  65 W5        29.78S
LITCHFIELD     CLOUDY    81  72  74 SW7       29.78S
BUFFALO        CLOUDY    79  66  66 S7        29.78F
MAPLE LAKE     CLOUDY    79  70  75 CALM      29.78S
$$
MNZ037-044-045-052-053-252200-
   East Central Minnesota

CITY           SKY/WX    TMP DP  RH WIND       PRES   REMARKS
PRINCETON      CLOUDY    79  70  73 S5        29.77F
MORA           CLOUDY    73  64  73 CALM      29.79F
CAMBRIDGE      MOSUNNY   79  66  65 SE6       29.76F
RUSH CITY      CLOUDY    74  67  79 SE3       29.78F
MOOSE LAKE     CLOUDY    75  66  73 SW7       29.76R
HINCKLEY       CLOUDY    75  68  78 S8        29.78S
CLOQUET        PTSUNNY   72  64  78 SE7       29.79S
MCGREGOR       CLOUDY    79  66  65 CALM      29.77S
$$
MNZ071>073-080-081-089-090-097-098-252200-
   Southwest Minnesota

CITY           SKY/WX    TMP DP  RH WIND       PRES   REMARKS
MONTEVIDEO     CLOUDY    84  73  70 NW7       29.76S HX  91
GRANITE FALLS  PTSUNNY   83  71  69 W7        29.77S
CANBY          CLOUDY    80  70  71 W3        29.78S
MARSHALL       CLOUDY    82  70  65 NW13      29.77S
REDWOOD FALLS  CLOUDY    83  70  64 S9        29.76F
OLIVIA         CLOUDY    81  70  69 SW6       29.76S
PIPESTONE      PTSUNNY   82  72  69 NW7       29.81S
WINDOM         MOSUNNY   82  70  65 S7        29.79F
WORTHINGTON    CLOUDY    79  70  73 SW8       29.82S
JACKSON        CLOUDY    81  68  65 S9        29.81F
TRACY          PTSUNNY   82  72  69 W3        29.78S
SLAYTON        CLOUDY    81  70  70 CALM      29.81S
$$
MNZ065>067-074>077-082>085-091>093-252200-
   South Central Minnesota

CITY           SKY/WX    TMP DP  RH WIND       PRES   REMARKS
MANKATO        CLOUDY    79  64  61 SW10      29.79F
NEW ULM        SUNNY     81  70  69 S7        29.78S
ST JAMES       PTSUNNY   81  66  61 S8        29.80S
FAIRMONT       CLOUDY    79  61  53 S10       29.81R
GLENCOE        PTSUNNY   81  66  60 S9G16     29.77S
FARIBAULT      CLOUDY    82  64  54 S9        29.80F
OWATONNA       MOSUNNY   81  68  65 SW8       29.81S
WASECA         PTSUNNY   79  64  61 S13       29.82S
ALBERT LEA     PTSUNNY   79  66  65 SW10      29.81S
$$
MNZ078>079-086>088-094>096-252200-
   Southeast Minnesota

CITY           SKY/WX    TMP DP  RH WIND       PRES   REMARKS
ROCHESTER      PTSUNNY   79  68  69 S9        29.84F
RED WING       CLOUDY    81  66  61 SW8       29.79S
STANTON        CLOUDY    81  67  63 SW9       29.79R
DODGE CENTER   PTSUNNY   79  68  69 S9        29.82F
WINONA         CLOUDY    77  64  65 S7        29.83F
AUSTIN         MOSUNNY   81  66  61 S12       29.81F
PRESTON        CLOUDY    77  70  79 S8        29.86S
$$
ABBREVIATIONS USED IN REMARKS
   TC - TEMPERATURES IN CELSIUS
  WCI - WIND CHILL INDEX
   HX - HEAT INDEX
  VSB - VISIBILITY
$$


USA.gov is the U.S. government's official web portal to all federal, state and local government web resources and services.